Zurück zum Katalog

STARLINK-5531

AktivKommunikationVLEO
NORAD 55383·PAYLOAD·🇺🇸 United States

Gestartet Jan 26, 2023 von Cape Canaveral Space Force Station

Loading…

Nächste Überflüge (nächste 24 Stunden)

TLE

AktuellSource: CelesTrak SupGP

Epoche: Sep 14, 2026, 21:32 UTC

1 55383C 23013BE  26257.89770833 -.00017675  00000+0 -64015-3 0  2573
2 55383  43.0022 300.1789 0002288 272.2353 311.6990 15.27587675    12

Verfolge STARLINK-5531 in Echtzeit mit AllMySat

Download on the App Store